EW1895 Weather Reports


Display with metric or nautical units.
time (UTC)temp
F
wind
direction
speed
MPH
gust
MPH
rain 1hr
in
rain 24hr
in
rain mn
in
humidity
%
barometer
mb
20260505024518 64 222 0.0 0.0 0.00 0.00 0.00 58 1012.7
20260505023014 65 222 0.0 0.0 0.00 0.00 0.00 55 1012.5
20260505021512 65 223 0.0 0.0 0.00 0.00 0.00 53 1012.5
20260505020011 66 223 0.0 0.0 0.00 0.00 0.00 52 1012.5
20260505014508 66 145 0.0 0.0 0.00 0.00 0.00 51 1012.4
20260505013107 67 145 0.0 0.0 0.00 0.00 0.00 49 1012.3
20260505011501 68 135 0.0 0.0 0.00 0.00 0.00 47 1012.1
20260505010113 68 135 0.0 0.0 0.00 0.00 0.00 47 1011.9
20260505004559 69 123 0.0 1.0 0.00 0.00 0.00 45 1011.8
20260505003058 70 217 0.0 0.0 0.00 0.00 0.00 45 1011.6
20260505001603 70 217 0.0 1.0 0.00 0.00 0.00 45 1011.7
20260505000055 70 115 0.0 1.0 0.00 0.00 0.00 43 1011.5
20260504234548 71 148 0.0 2.0 0.00 0.00 0.00 41 1011.8
20260504233103 71 165 0.0 0.0 0.00 0.00 0.00 39 1011.8
20260504231547 72 140 0.0 2.0 0.00 0.00 0.00 38 1011.6
20260504230052 73 163 0.0 2.0 0.00 0.00 0.00 37 1011.4
20260504224540 74 137 0.0 1.0 0.00 0.00 0.00 36 1011.5
20260504223035 75 182 1.0 5.0 0.00 0.00 0.00 34 1011.7
20260504221532 76 73 0.0 5.0 0.00 0.00 0.00 33 1011.7
20260504220035 77 261 2.0 7.0 0.00 0.00 0.00 33 1011.5
20260504214532 78 217 0.0 3.0 0.00 0.00 0.00 33 1011.5
20260504213032 79 204 1.0 7.0 0.00 0.00 0.00 31 1011.4
20260504211533 79 18 0.0 5.0 0.00 0.00 0.00 31 1011.5
20260504210034 79 334 0.0 7.0 0.00 0.00 0.00 31 1011.6
20260504204527 79 198 0.0 5.0 0.00 0.00 0.00 32 1011.7
20260504203039 80 78 0.0 4.0 0.00 0.00 0.00 29 1011.8
20260504201527 80 141 0.0 7.0 0.00 0.00 0.00 30 1011.8
20260504200025 80 317 0.0 5.0 0.00 0.00 0.00 30 1012.1
20260504194523 80 233 1.0 4.0 0.00 0.00 0.00 29 1012.3
20260504193023 80 196 0.0 6.0 0.00 0.00 0.00 29 1012.4
20260504191524 79 239 1.0 7.0 0.00 0.00 0.00 29 1012.7
20260504190016 79 55 0.0 9.0 0.00 0.00 0.00 29 1012.9
20260504184514 78 227 0.0 5.0 0.00 0.00 0.00 30 1013.1
20260504183012 76 360 0.0 5.0 0.00 0.00 0.00 32 1013.3
20260504181512 77 134 0.0 6.0 0.00 0.00 0.00 31 1013.4
20260504180011 76 273 0.0 2.0 0.00 0.00 0.00 30 1013.6
20260504174511 78 190 1.0 6.0 0.00 0.00 0.00 29 1013.8
20260504173010 78 103 0.0 7.0 0.00 0.00 0.00 29 1013.6
20260504171506 78 151 1.0 7.0 0.00 0.00 0.00 29 1014.0
20260504081514 50 159 0.0 4.0 0.00 0.00 0.00 59 1016.8
20260504050012 47 209 0.0 0.0 0.00 0.00 0.00 71 1016.7
20260504044515 47 209 0.0 0.0 0.00 0.00 0.00 72 1016.7
20260504043010 47 209 0.0 0.0 0.00 0.00 0.00 71 1016.6
20260504041509 47 209 0.0 0.0 0.00 0.00 0.00 68 1016.6
20260504040008 47 209 0.0 0.0 0.00 0.00 0.00 71 1016.5
20260504034508 47 209 0.0 0.0 0.00 0.00 0.00 72 1016.4
20260504033008 46 209 0.0 0.0 0.00 0.00 0.00 71 1016.5
20260504031507 46 209 0.0 0.0 0.00 0.00 0.00 70 1016.6
20260504030005 47 209 0.0 0.0 0.00 0.00 0.00 68 1016.5